Date,TemperatureHighF,TemperatureAvgF,TemperatureLowF,DewpointHighF,DewpointAvgF,DewpointLowF,HumidityHigh,HumidityAvg,HumidityLow,PressureMaxIn,PressureMinIn,WindSpeedMaxMPH,WindSpeedAvgMPH,GustSpeedMaxMPH,PrecipitationSumIn
2013-2-8,19.0,13.9,11.0,11.0,8.4,6.0,86,78,69,30.27,30.25,1,0,3,0.05
2013-2-9,25.0,18.1,10.0,23.0,16.1,8.0,94,92,87,30.27,29.96,7,3,13,0.01
2013-2-10,38.0,30.8,25.0,38.0,30.0,23.0,99,96,93,29.97,29.22,9,4,19,0.34
2013-2-11,36.0,29.6,24.0,35.0,27.4,20.0,99,92,83,29.89,29.21,16,8,28,0.29
2013-2-12,30.0,23.2,18.0,23.0,18.8,14.0,94,83,72,29.95,29.72,11,4,17,0.01
2013-2-13,37.0,28.0,19.0,30.0,24.6,18.0,96,87,71,29.73,29.55,6,2,10,0.01
2013-2-14,31.0,28.1,15.0,31.0,24.6,9.0,98,87,67,29.98,29.49,11,5,18,0.01
2013-2-15,17.0,12.5,7.0,10.0,5.7,0.0,80,74,67,30.12,29.98,10,4,17,0.01
2013-2-16,15.0,8.0,1.0,5.0,1.1,-5.0,87,73,54,30.11,30.06,5,2,11,0.00
2013-2-17,23.0,10.4,-8.0,16.0,3.0,-12.0,88,73,54,30.09,29.78,5,2,15,0.00
2013-2-18,40.0,28.7,21.0,32.0,24.3,16.0,94,84,71,29.78,29.43,12,4,28,0.02
2013-2-19,22.0,9.8,5.0,20.0,4.1,-3.0,93,78,65,30.10,29.46,17,10,27,0.01
2013-2-20,23.0,12.2,2.0,12.0,5.4,-2.0,86,74,60,30.32,30.10,8,5,18,0.00
2013-2-21,23.0,13.2,1.0,20.0,8.6,-2.0,92,82,68,30.37,30.04,9,2,18,0.00
2013-2-22,30.0,25.3,22.0,28.0,23.6,19.0,96,93,87,30.05,29.73,9,3,24,0.06
2013-2-23,28.0,25.4,24.0,25.0,23.0,22.0,95,90,82,29.84,29.72,8,4,14,0.02
2013-2-24,34.0,27.6,23.0,27.0,23.3,20.0,93,85,69,30.04,29.84,6,2,12,0.03
2013-2-25,34.0,26.7,18.0,28.0,23.4,16.0,95,87,75,30.07,29.98,3,0,7,0.01
2013-2-26,35.0,30.3,23.0,29.0,25.4,20.0,92,82,74,30.01,29.72,11,6,21,0.01
2013-2-27,33.0,30.9,29.0,31.0,27.8,25.0,93,88,79,29.81,29.67,9,6,21,0.04
2013-2-28,31.0,28.7,22.0,28.0,23.0,16.0,90,79,70,30.11,29.81,9,5,17,0.01
2013-3-1,29.0,23.4,18.0,18.0,15.2,8.0,82,71,60,30.21,30.11,7,4,14,0.00
2013-3-2,28.0,17.6,7.0,15.0,9.6,4.0,87,71,48,30.22,30.09,6,2,12,0.00
2013-3-3,30.0,17.9,7.0,10.0,4.3,-1.0,87,58,28,30.09,29.99,4,1,7,0.00
2013-3-4,29.0,20.6,9.0,19.0,12.5,2.0,82,71,58,30.04,29.97,7,3,14,0.00
2013-3-5,28.0,25.6,24.0,26.0,21.4,18.0,94,84,73,30.11,29.92,8,4,17,0.00
2013-3-6,30.0,25.2,18.0,23.0,20.1,12.0,89,81,68,30.24,30.11,8,4,13,0.06
2013-3-7,33.0,21.6,10.0,19.0,14.4,8.0,93,75,53,30.34,30.24,4,1,7,0.02
2013-3-8,40.0,28.0,15.0,28.0,21.7,13.0,93,78,60,30.35,30.16,5,2,11,0.01
2013-3-9,37.0,33.1,29.0,35.0,30.4,25.0,98,90,82,30.16,29.72,6,3,14,0.29
2013-3-10,37.0,34.9,31.0,36.0,34.0,31.0,99,96,89,29.82,29.67,9,4,19,0.28
2013-3-11,32.0,28.8,25.0,31.0,27.8,22.0,98,96,91,29.69,29.54,10,6,17,0.18
2013-3-12,28.0,24.6,20.0,24.0,20.7,15.0,95,85,69,29.98,29.69,11,6,20,0.02
2013-3-13,30.0,21.4,14.0,16.0,11.0,8.0,88,66,38,30.22,29.98,10,6,15,0.01
2013-3-14,35.0,24.4,11.0,28.0,18.5,8.0,92,78,65,30.20,29.95,5,1,8,0.05
2013-3-15,35.0,30.5,27.0,32.0,28.6,25.0,97,93,86,29.95,29.78,5,3,10,0.04
2013-3-16,27.0,21.6,18.0,26.0,16.1,9.0,96,79,62,30.06,29.80,9,4,18,0.09
2013-3-17,25.0,16.4,6.0,15.0,8.8,1.0,81,72,60,30.20,29.94,7,4,14,0.01
2013-3-18,31.0,21.3,15.0,29.0,18.7,11.0,94,89,82,29.94,29.48,13,4,26,0.14
2013-3-19,24.0,16.8,11.0,13.0,9.2,5.0,87,72,55,29.93,29.56,16,11,32,0.01
2013-3-20,17.0,10.8,4.0,8.0,2.7,-4.0,78,69,63,29.99,29.93,12,8,24,0.00
2013-3-21,25.0,15.3,7.0,14.0,7.8,2.0,82,72,60,29.99,29.93,6,3,11,0.00
2013-3-22,36.0,22.5,10.0,20.0,13.2,5.0,85,68,49,30.00,29.94,4,1,8,0.01
2013-3-23,37.0,28.0,18.0,23.0,19.5,13.0,88,71,56,30.07,29.99,4,1,7,0.01
2013-3-24,34.0,30.7,28.0,26.0,23.8,20.0,84,75,66,30.03,29.82,9,4,19,0.00
2013-3-25,37.0,28.9,21.0,26.0,22.0,17.0,90,76,60,30.07,29.86,9,4,16,0.00
2013-3-26,39.0,32.1,26.0,27.0,23.2,19.0,86,70,55,30.19,30.07,7,4,12,0.00
2013-3-27,41.0,35.4,31.0,26.0,22.7,20.0,75,61,46,30.25,30.19,6,2,11,0.00
2013-3-28,45.0,34.6,23.0,22.0,20.0,16.0,78,56,37,30.28,30.22,6,1,12,0.00
2013-3-29,48.0,37.7,25.0,25.0,21.3,18.0,74,53,35,30.26,30.13,3,1,5,0.00
2013-3-30,42.0,38.5,36.0,41.0,32.4,-99.9,99,83,56,30.12,29.75,5,2,14,0.44
2013-3-31,38.0,34.2,27.0,36.0,28.6,17.0,99,82,46,29.87,29.65,14,6,24,0.02
2013-4-1,31.0,25.4,20.0,17.0,14.7,11.0,73,63,51,30.10,29.88,11,7,22,0.01
2013-4-2,34.0,26.7,20.0,19.0,15.8,13.0,76,64,49,30.26,30.10,10,5,17,0.00
2013-4-3,42.0,31.0,19.0,21.0,16.1,11.0,80,56,33,30.40,30.13,7,2,11,0.00
2013-4-4,47.0,39.3,32.0,35.0,27.3,21.0,71,62,52,30.13,29.93,10,5,18,0.00
2013-4-5,40.0,34.3,26.0,31.0,22.9,19.0,95,64,46,30.21,30.04,5,2,12,0.00
2013-4-6,46.0,37.2,31.0,43.0,33.4,28.0,98,87,68,30.05,29.44,10,4,18,0.35
2013-4-7,42.0,37.0,34.0,36.0,33.2,31.0,95,86,76,29.90,29.54,10,4,20,0.25
2013-4-8,41.0,37.7,35.0,37.0,34.7,32.0,92,89,86,29.96,29.69,6,2,12,0.01
2013-4-9,40.0,36.9,34.0,38.0,34.7,28.0,98,92,73,30.03,29.93,11,5,20,0.76
2013-4-10,39.0,34.6,29.0,32.0,28.4,23.0,96,79,54,30.09,29.89,9,5,17,0.59
2013-4-11,36.0,32.4,29.0,32.0,27.7,22.0,95,84,58,29.89,29.61,15,3,23,0.25
2013-4-12,34.0,31.3,29.0,32.0,29.4,28.0,97,93,85,29.69,29.53,5,1,8,0.25
2013-4-13,33.0,30.1,25.0,30.0,26.5,23.0,94,87,77,29.92,29.68,9,4,16,0.09
2013-4-14,34.0,29.5,23.0,34.0,27.9,21.0,98,94,82,29.95,29.58,9,2,17,0.13
2013-4-15,46.0,38.3,33.0,39.0,33.1,27.0,99,82,50,29.87,29.54,13,4,24,0.40
2013-4-16,46.0,37.2,33.0,32.0,30.3,28.0,87,76,58,30.27,29.88,7,3,14,0.04
2013-4-17,39.0,35.9,32.0,35.0,31.3,28.0,96,83,76,30.29,29.88,12,4,21,0.03
2013-4-18,39.0,37.2,36.0,38.0,36.3,35.0,99,97,95,29.87,29.21,10,4,18,0.47
2013-4-19,36.0,31.0,27.0,36.0,27.6,20.0,99,87,73,29.85,29.17,17,9,29,0.21
2013-4-20,40.0,30.9,23.0,22.0,18.8,14.0,86,62,40,30.30,29.85,9,4,16,0.01
2013-4-21,43.0,34.9,30.0,39.0,30.2,20.0,96,83,61,30.38,30.10,8,4,18,0.17
2013-4-22,47.0,44.2,42.0,45.0,42.9,40.0,99,95,91,30.13,29.93,7,2,13,0.21
2013-4-23,47.0,37.0,30.0,47.0,33.1,26.0,100,86,72,29.98,29.83,11,5,23,0.20
2013-4-24,50.0,38.3,28.0,36.0,28.2,24.0,93,69,46,29.97,29.85,10,4,22,0.08
2013-4-25,47.0,38.5,34.0,35.0,32.0,29.0,97,79,52,30.18,29.87,10,4,18,0.14
2013-4-26,70.0,53.1,36.0,49.0,39.2,29.0,86,61,40,30.16,30.00,10,4,19,0.07
2013-4-27,70.0,58.8,47.0,54.0,48.9,45.0,93,71,49,30.12,29.96,7,3,14,0.01
2013-4-28,72.0,59.7,44.0,49.0,45.6,42.0,94,63,36,29.96,29.71,7,2,16,0.00
2013-4-29,72.0,61.8,52.0,58.0,52.9,45.0,92,74,55,29.76,29.65,7,2,14,0.08
2013-4-30,82.0,67.9,54.0,60.0,55.9,48.0,93,68,44,29.91,29.54,12,5,23,0.05
2013-5-1,59.0,50.7,39.0,49.0,44.8,34.0,97,81,62,30.32,29.91,11,5,21,0.15
2013-5-2,39.0,35.6,32.0,35.0,32.4,29.0,95,88,82,30.37,30.26,9,7,23,0.25
2013-5-3,39.0,34.7,31.0,38.0,33.3,29.0,97,95,90,30.26,30.02,9,4,15,0.56
2013-5-4,72.0,53.7,39.0,56.0,45.7,38.0,98,78,40,30.06,29.98,6,3,10,0.08
2013-5-5,72.0,58.7,46.0,50.0,45.6,40.0,92,66,33,30.07,29.99,4,2,9,0.01
2013-5-6,74.0,62.8,48.0,48.0,43.5,37.0,86,53,27,30.07,29.97,4,1,8,0.00
2013-5-7,78.0,65.8,50.0,49.0,42.6,32.0,81,47,19,30.04,29.94,4,1,8,0.00
2013-5-8,80.0,67.5,51.0,52.0,45.0,40.0,75,47,28,29.99,29.92,4,1,12,0.00
2013-5-9,65.0,54.7,43.0,54.0,49.8,42.0,96,84,61,29.98,29.90,10,4,20,1.03
2013-5-10,64.0,49.0,39.0,45.0,37.1,-99.9,95,70,29,29.99,29.86,9,4,18,0.28
2013-5-11,49.0,44.7,38.0,45.0,33.9,-99.9,92,69,44,30.01,29.76,16,8,27,0.06
2013-5-12,52.0,42.2,33.0,32.0,25.3,21.0,78,53,30,30.07,30.01,11,6,21,0.01
2013-5-13,62.0,48.3,31.0,38.0,29.8,22.0,78,51,30,30.11,29.78,5,2,12,0.00
2013-5-14,83.0,65.6,44.0,58.0,47.9,36.0,83,55,32,29.78,29.46,11,2,23,0.00
2013-5-15,74.0,66.5,58.0,50.0,46.3,42.0,71,49,33,29.84,29.51,10,5,23,0.00
2013-5-16,80.0,60.8,51.0,53.0,28.7,-99.9,85,54,29,29.98,29.80,4,1,10,0.00
2013-5-17,59.0,51.5,48.0,52.0,43.0,-99.9,96,84,58,30.07,29.96,5,2,12,0.19
2013-5-18,75.0,62.3,50.0,65.0,57.0,48.0,95,84,69,30.05,29.88,5,2,13,0.04
2013-5-19,82.0,71.1,60.0,68.0,63.1,58.0,96,77,58,29.90,29.61,7,2,24,0.00
2013-5-20,80.0,70.1,61.0,64.0,60.3,57.0,97,73,47,29.72,29.55,9,4,21,0.23
2013-5-21,73.0,64.5,59.0,64.0,59.0,55.0,98,84,63,29.67,29.51,8,2,15,0.86
2013-5-22,61.0,56.3,51.0,60.0,54.9,50.0,96,94,84,29.85,29.64,7,3,18,1.36
2013-5-23,60.0,50.9,42.0,50.0,39.6,34.0,95,68,38,30.29,29.85,8,4,19,0.56
2013-5-24,64.0,50.9,35.0,45.0,37.6,33.0,92,63,39,30.41,30.25,3,1,8,0.02
2013-5-25,65.0,55.6,48.0,45.0,42.6,39.0,86,63,40,30.34,30.24,5,2,13,0.00
2013-5-26,65.0,55.0,43.0,46.0,41.7,37.0,82,62,46,30.28,30.12,5,1,14,0.00
2013-5-27,59.0,54.5,51.0,52.0,47.2,40.0,96,77,63,30.14,29.88,5,2,14,0.22
2013-5-28,57.0,53.9,51.0,56.0,52.9,50.0,98,97,96,29.88,29.69,2,0,9,0.56
2013-5-29,82.0,64.1,57.0,68.0,60.6,56.0,98,91,56,29.84,29.74,13,1,29,1.14
2013-5-30,78.0,69.4,62.0,71.0,66.0,61.0,98,89,72,29.79,29.61,8,4,17,1.42
2013-5-31,79.0,69.1,62.0,65.0,61.1,58.0,93,77,49,29.68,29.59,8,4,19,0.03
2013-6-1,72.0,62.4,50.0,61.0,56.2,46.0,95,81,57,29.75,29.57,9,3,25,0.02
2013-6-2,59.0,50.5,44.0,46.0,42.0,39.0,88,74,55,29.99,29.75,8,4,18,0.01
2013-6-3,70.0,58.4,44.0,50.0,44.9,41.0,90,64,40,30.06,29.97,7,2,13,0.00
2013-6-4,59.0,54.2,52.0,54.0,49.8,43.0,96,86,58,30.16,30.04,4,1,7,0.28
2013-6-5,56.0,52.2,50.0,54.0,50.7,49.0,97,94,88,30.11,29.94,5,1,12,0.41
2013-6-6,54.0,52.2,50.0,53.0,50.8,49.0,97,95,91,29.97,29.92,2,0,7,0.33
2013-6-7,69.0,58.4,50.0,55.0,50.6,46.0,94,76,49,29.99,29.90,5,1,8,0.01
2013-6-8,68.0,59.6,54.0,58.0,53.3,49.0,95,81,52,29.98,29.89,5,1,14,0.16
2013-6-9,73.0,61.3,54.0,63.0,56.4,51.0,96,84,65,29.98,29.80,5,1,16,0.37
2013-6-10,78.0,67.9,57.0,65.0,61.5,56.0,98,81,61,29.83,29.78,5,1,10,0.28
2013-6-11,79.0,68.6,59.0,65.0,61.9,58.0,97,80,60,29.88,29.80,6,1,11,0.01
2013-6-12,73.0,65.9,61.0,64.0,61.6,59.0,95,86,69,29.90,29.72,5,1,13,0.29
2013-6-13,76.0,66.4,57.0,60.0,55.7,52.0,95,71,47,30.08,29.79,7,2,14,0.03
2013-6-14,77.0,65.7,53.0,58.0,53.5,49.0,93,67,44,30.13,29.95,4,1,11,0.00
2013-6-15,76.0,66.7,61.0,69.0,62.9,57.0,96,88,76,30.01,29.78,7,2,22,0.43
2013-6-16,80.0,69.5,57.0,62.0,56.6,52.0,98,68,38,29.87,29.82,10,3,18,0.33
2013-6-17,77.0,66.5,55.0,64.0,57.3,52.0,92,74,51,29.98,29.84,8,2,16,0.15
2013-6-18,73.0,62.9,53.0,58.0,51.0,43.0,93,67,42,30.09,29.98,5,1,11,0.15
2013-6-19,77.0,64.5,50.0,60.0,52.5,46.0,89,67,49,30.12,30.01,4,1,11,0.00
2013-6-20,83.0,69.4,59.0,65.0,58.5,54.0,86,70,44,30.08,30.02,7,2,14,0.00
2013-6-22,79.0,73.2,65.0,71.0,68.0,64.0,98,84,71,29.96,29.88,5,1,14,0.22
2013-6-23,82.0,73.3,65.0,72.0,66.6,62.0,96,80,57,29.91,29.79,10,3,19,0.15
2013-6-24,80.0,72.3,65.0,72.0,67.9,64.0,96,86,74,29.93,29.81,5,1,13,0.04
2013-6-25,81.0,73.2,65.0,71.0,67.2,64.0,96,82,67,29.87,29.75,5,1,11,0.04
2013-6-26,85.0,75.1,69.0,74.0,70.7,68.0,98,87,66,29.76,29.69,5,1,11,0.10
2013-6-27,83.0,74.2,66.0,71.0,65.4,58.0,98,77,47,29.78,29.68,12,3,22,0.12
2013-6-28,72.0,66.7,63.0,66.0,61.5,57.0,95,84,71,29.72,29.63,9,4,19,0.33
2013-6-29,73.0,64.1,60.0,64.0,58.5,51.0,95,83,61,29.90,29.67,6,3,16,0.18
2013-6-30,80.0,66.6,54.0,54.0,50.2,45.0,81,58,35,30.06,29.90,6,2,13,0.02
2013-7-1,82.0,70.5,56.0,62.0,55.6,51.0,84,61,39,30.15,30.06,5,1,10,0.00
2013-7-2,77.0,67.3,56.0,57.0,53.5,50.0,83,63,42,30.14,30.05,3,1,10,0.00
2013-7-3,75.0,63.6,51.0,62.0,53.4,44.0,94,72,37,30.09,29.99,4,1,8,0.01
2013-7-4,82.0,70.5,59.0,63.0,60.2,57.0,97,72,48,30.03,29.95,5,2,14,0.01
2013-7-5,84.0,74.3,62.0,64.0,61.2,58.0,89,66,42,30.00,29.91,7,2,15,0.00
2013-7-6,87.0,75.6,66.0,68.0,64.4,61.0,85,70,48,29.97,29.89,6,2,12,0.00
2013-7-7,88.0,77.3,69.0,72.0,68.4,64.0,87,75,51,29.92,29.85,6,2,14,0.00
2013-7-8,88.0,75.3,69.0,72.0,68.3,-99.9,97,82,51,29.96,29.84,5,1,10,0.33
2013-7-9,85.0,75.6,69.0,75.0,70.2,68.0,97,84,64,29.98,29.75,12,3,22,0.44
2013-7-10,76.0,68.9,60.0,69.0,56.8,-99.9,89,69,49,30.01,29.80,10,4,20,0.01
2013-7-11,82.0,69.9,59.0,62.0,58.4,54.0,93,70,38,30.10,30.01,2,0,7,0.00
2013-7-12,82.0,71.4,60.0,63.0,59.9,57.0,93,69,45,30.12,30.02,6,2,14,0.00
2013-7-13,81.0,71.8,63.0,65.0,61.6,59.0,87,72,52,30.12,30.03,6,2,15,0.00
2013-7-14,86.0,74.7,60.0,69.0,64.0,57.0,92,71,50,30.21,30.13,5,1,12,0.00
2013-7-15,86.0,77.4,68.0,75.0,69.5,65.0,93,78,60,30.26,30.19,6,1,13,0.05
2013-7-16,91.0,81.3,72.0,75.0,72.8,71.0,96,77,53,30.25,30.19,6,2,12,0.05
2013-7-17,92.0,82.3,73.0,75.0,71.1,68.0,93,71,49,30.26,30.14,6,2,14,0.00
2013-7-18,92.0,82.9,74.0,75.0,71.0,69.0,86,69,50,30.14,29.81,7,3,20,0.00
2013-7-19,87.0,79.4,70.0,73.0,66.3,59.0,89,65,48,29.84,29.70,12,5,25,0.03
2013-7-20,78.0,70.0,64.0,62.0,57.9,-99.9,86,68,47,29.95,29.82,5,1,9,0.03
2013-7-21,69.0,62.6,57.0,63.0,59.0,54.0,96,88,77,30.00,29.88,4,1,9,1.20
2013-7-22,84.0,70.6,61.0,72.0,65.5,60.0,98,85,65,29.88,29.62,7,2,16,0.01
2013-7-23,72.0,64.0,57.0,60.0,53.2,49.0,87,69,50,29.99,29.75,8,3,17,0.01
2013-7-24,74.0,63.2,50.0,57.0,51.7,47.0,93,69,44,30.07,29.98,3,0,9,0.00
2013-7-25,80.0,65.7,56.0,67.0,59.9,53.0,93,83,56,30.01,29.91,6,2,24,0.37
2013-7-26,72.0,64.6,52.0,66.0,58.5,46.0,96,82,55,29.95,29.82,12,4,22,0.15
2013-7-27,57.0,51.7,46.0,50.0,46.7,43.0,92,83,72,29.95,29.82,8,4,15,0.01
2013-7-28,64.0,56.0,48.0,55.0,50.8,45.0,93,83,69,30.00,29.82,11,4,21,0.01
2013-7-29,76.0,62.8,50.0,59.0,53.7,48.0,93,74,51,30.12,29.99,5,1,11,0.01
2013-7-30,75.0,65.9,58.0,63.0,59.7,56.0,94,81,60,30.14,30.04,2,0,6,0.01
2013-7-31,75.0,68.1,62.0,65.0,61.8,57.0,94,81,58,30.05,29.91,6,2,14,0.01
2013-8-1,76.0,64.8,57.0,58.0,54.4,52.0,85,71,43,29.97,29.85,7,2,16,0.01
2013-8-2,76.0,66.9,57.0,61.0,55.6,51.0,95,69,44,29.98,29.80,7,2,16,0.00
2013-8-3,74.0,64.3,53.0,55.0,51.4,48.0,91,65,42,30.15,29.98,8,2,15,0.00
2013-8-4,73.0,63.0,51.0,56.0,52.2,48.0,93,70,45,30.22,30.06,3,0,7,0.00
2013-8-5,70.0,63.0,55.0,64.0,58.8,52.0,95,86,74,30.06,29.81,5,1,12,0.00
2013-8-6,81.0,70.9,63.0,68.0,62.1,53.0,97,76,39,29.84,29.70,16,2,36,0.59
2013-8-7,75.0,65.7,58.0,63.0,58.3,51.0,97,79,52,30.00,29.68,6,2,13,0.62
2013-8-8,77.0,64.4,50.0,57.0,51.9,48.0,95,67,42,30.04,29.96,4,1,8,0.01
2013-8-9,75.0,67.0,59.0,61.0,55.0,51.0,89,67,43,30.07,29.94,8,3,16,0.00
2013-8-10,71.0,64.4,56.0,56.0,54.5,51.0,89,71,51,30.15,30.06,4,1,7,0.00
2013-8-11,73.0,63.0,55.0,63.0,58.5,53.0,95,86,68,30.10,30.00,3,0,9,0.01
2013-8-12,78.0,65.9,55.0,64.0,57.5,50.0,98,77,41,30.03,29.91,8,2,16,0.02
2013-8-13,70.0,58.3,47.0,51.0,46.0,-99.9,92,68,45,30.16,30.03,6,2,14,0.01
2013-8-14,73.0,59.2,45.0,52.0,46.2,-99.9,96,69,42,30.19,30.09,5,1,12,0.00
2013-8-15,77.0,59.0,51.0,56.0,39.2,-99.9,87,63,41,30.12,30.05,7,2,13,0.00
2013-8-16,80.0,66.7,52.0,58.0,50.9,-99.9,92,63,40,30.16,30.11,5,1,9,0.00
2013-8-17,82.0,68.5,55.0,61.0,54.2,-99.9,93,65,41,30.22,30.12,4,1,10,0.00
2013-8-18,81.0,68.8,56.0,62.0,57.4,54.0,95,70,42,30.18,30.05,5,1,11,0.00
2013-8-19,81.0,66.4,58.0,66.0,50.4,-99.9,92,74,55,30.06,29.96,6,2,14,0.00
2013-8-20,86.0,73.9,63.0,70.0,64.2,-99.9,94,76,57,30.00,29.92,6,2,16,0.00
2013-8-21,89.0,75.5,67.0,73.0,68.4,64.0,97,80,60,29.99,29.86,7,2,16,0.05
2013-8-22,83.0,71.0,62.0,66.0,60.4,55.0,97,73,39,30.11,29.98,3,0,10,0.07
2013-8-23,83.0,69.7,57.0,63.0,58.1,54.0,92,69,46,30.17,30.09,4,1,12,0.01
2013-8-24,83.0,70.9,61.0,70.0,59.2,-99.9,87,69,45,30.19,30.06,7,3,14,0.01
2013-8-25,92.0,80.8,72.0,73.0,70.5,67.0,88,73,53,30.10,29.99,9,4,22,0.01
2013-8-26,93.0,80.0,69.0,76.0,71.2,66.0,96,76,55,30.11,29.89,7,2,16,0.16
2013-8-27,92.0,80.2,74.0,75.0,73.3,72.0,94,81,56,29.91,29.78,5,1,11,0.01
2013-8-28,86.0,80.6,74.0,71.0,69.7,68.0,83,70,59,30.03,29.99,3,1,9,0.19
2013-8-29,87.0,77.1,66.0,74.0,70.0,65.0,97,80,60,30.06,29.91,5,2,11,0.00
2013-8-30,82.0,75.6,66.0,74.0,68.9,61.0,95,81,61,29.91,29.81,6,2,15,0.00
2013-8-31,82.0,69.0,58.0,66.0,60.8,-99.9,97,79,54,29.90,29.76,4,1,8,0.00
2013-9-1,77.0,70.5,66.0,69.0,63.9,59.0,97,81,58,29.86,29.72,9,3,19,0.13
2013-9-2,68.0,59.9,51.0,60.0,53.1,48.0,90,79,58,30.01,29.86,5,2,15,0.09
2013-9-3,75.0,59.6,44.0,53.0,49.4,42.0,97,72,43,30.07,29.97,6,2,11,0.01
2013-9-4,80.0,67.6,57.0,65.0,58.5,51.0,86,73,58,30.14,29.98,5,2,11,0.01
2013-9-5,78.0,64.0,54.0,57.0,54.0,51.0,97,73,40,30.27,30.14,4,1,7,0.00
2013-9-6,88.0,70.1,54.0,66.0,58.4,50.0,87,68,46,30.17,29.92,6,2,13,0.00
2013-9-7,88.0,75.7,68.0,71.0,64.3,-99.9,84,71,54,30.01,29.86,6,2,14,0.00
2013-9-8,74.0,66.3,57.0,62.0,56.8,52.0,87,73,55,30.09,29.94,5,1,14,0.00
2013-9-9,87.0,74.8,63.0,75.0,67.4,59.0,92,79,60,29.94,29.68,6,2,17,0.00
2013-9-10,85.0,77.5,72.0,70.0,66.0,62.0,85,69,48,29.93,29.73,7,2,12,0.00
2013-9-11,84.0,72.2,60.0,64.0,60.2,53.0,87,68,37,30.02,29.93,8,3,17,0.00
2013-9-12,66.0,57.8,50.0,54.0,50.7,43.0,92,78,50,30.16,29.95,8,2,16,0.00
2013-9-13,67.0,52.6,41.0,45.0,41.8,38.0,96,70,41,30.23,30.09,5,1,14,0.00
2013-9-14,71.0,57.2,43.0,53.0,43.6,-99.9,89,65,41,30.11,29.93,5,2,12,0.07
2013-9-15,65.0,56.1,50.0,56.0,52.1,43.0,97,87,70,30.26,29.91,7,2,14,0.80
2013-9-16,64.0,50.6,38.0,44.0,41.3,37.0,96,73,41,30.40,30.26,4,1,9,0.01
2013-9-17,65.0,52.8,39.0,56.0,47.3,38.0,97,83,54,30.31,30.03,6,1,11,0.12
2013-9-18,69.0,58.9,57.0,65.0,57.6,56.0,97,95,88,30.03,29.81,4,2,10,0.68
2013-9-19,80.0,71.4,67.0,73.0,68.5,65.0,98,91,76,29.81,29.66,7,2,16,1.42
2013-9-20,67.0,61.7,53.0,66.0,58.3,49.0,97,89,73,29.82,29.69,8,4,24,0.92
2013-9-21,59.0,51.3,46.0,49.0,43.8,-99.9,92,78,62,29.95,29.81,8,3,15,0.01
2013-9-22,63.0,49.7,38.0,46.0,42.1,37.0,97,77,52,30.06,29.95,3,1,8,0.01
2013-9-23,68.0,53.8,42.0,53.0,47.6,41.0,96,81,56,30.07,29.98,6,2,14,0.01
2013-9-24,72.0,56.0,44.0,56.0,49.6,43.0,97,81,53,30.02,29.94,3,0,8,0.01
2013-9-25,69.0,55.9,43.0,54.0,49.3,42.0,97,81,53,30.00,29.93,3,1,9,0.01
2013-9-26,74.0,58.0,46.0,57.0,50.9,45.0,97,80,43,30.04,29.97,4,1,13,0.01
2013-9-27,78.0,64.8,51.0,60.0,52.9,48.0,90,68,40,30.07,29.95,7,2,17,0.01
2013-9-28,75.0,60.7,52.0,65.0,53.3,-99.9,96,80,58,29.97,29.72,12,4,26,0.58
2013-9-29,70.0,56.8,45.0,51.0,48.0,44.0,97,75,46,30.00,29.91,5,2,13,0.10
2013-9-30,71.0,59.9,51.0,52.0,48.0,45.0,81,66,43,29.91,29.72,9,4,23,0.01
2013-10-1,66.0,59.5,54.0,42.0,41.3,41.0,62,52,42,29.94,29.86,2,1,7,0.00
2013-10-2,73.0,57.0,42.0,49.0,42.3,38.0,84,60,34,30.08,29.90,2,1,7,0.00
2013-10-3,66.0,58.6,51.0,59.0,53.0,44.0,96,82,57,29.93,29.82,7,2,12,0.80
2013-10-4,57.0,55.8,55.0,56.0,54.8,54.0,97,97,95,30.00,29.88,5,2,13,0.81
2013-10-5,62.0,58.9,55.0,61.0,57.9,52.0,98,98,94,29.98,29.68,7,2,17,3.30
2013-10-6,57.0,50.2,43.0,53.0,43.6,38.0,97,79,52,29.70,29.64,9,2,14,0.89
2013-10-7,62.0,51.3,44.0,49.0,44.3,42.0,96,79,48,30.01,29.67,10,3,17,0.07
2013-10-8,73.0,57.0,42.0,51.0,46.0,40.0,96,70,38,30.06,29.96,8,2,18,0.01
2013-10-9,71.0,60.2,51.0,54.0,49.6,46.0,84,69,48,30.13,30.02,5,2,13,0.01
2013-10-10,71.0,57.4,44.0,55.0,47.9,42.0,96,73,46,30.11,29.99,5,1,14,0.00
2013-10-11,73.0,60.4,48.0,60.0,53.4,47.0,97,79,57,30.00,29.82,9,3,21,0.00
2013-10-12,62.0,57.7,47.0,56.0,46.6,-99.9,85,69,52,30.09,29.78,12,4,22,0.00
2013-10-13,58.0,48.8,41.0,42.0,38.9,34.0,93,71,46,30.37,30.09,7,3,13,0.00
2013-10-14,59.0,48.2,36.0,44.0,39.1,33.0,90,72,51,30.39,30.09,4,1,14,0.00
2013-10-15,56.0,50.6,47.0,55.0,48.1,42.0,97,91,83,30.09,29.66,7,2,15,0.79
2013-10-16,50.0,47.1,40.0,47.0,44.0,38.0,97,89,78,29.88,29.70,6,3,13,0.02
2013-10-17,54.0,43.4,33.0,44.0,38.4,32.0,97,84,61,29.87,29.73,4,1,10,0.01
2013-10-18,46.0,42.8,36.0,45.0,40.2,34.0,96,90,77,29.86,29.72,10,2,19,0.06
2013-10-19,50.0,38.7,32.0,41.0,33.6,-99.9,95,85,53,29.83,29.62,10,1,21,0.16
2013-10-20,43.0,37.4,31.0,42.0,36.3,30.0,97,96,91,29.76,29.60,11,2,21,0.10
2013-10-21,40.0,35.3,34.0,37.0,28.7,23.0,92,77,61,29.83,29.67,11,6,19,0.02
2013-10-22,44.0,36.1,30.0,32.0,28.1,26.0,90,73,54,29.93,29.82,7,4,15,0.00
2013-10-23,38.0,32.9,27.0,32.0,27.2,23.0,91,79,67,29.96,29.89,7,3,16,0.01
2013-10-24,41.0,35.2,31.0,32.0,27.9,25.0,89,75,59,30.21,29.96,11,5,20,0.01
2013-10-25,50.0,43.9,33.0,37.0,31.7,28.0,87,63,53,30.23,29.69,8,5,22,0.00
2013-10-26,51.0,44.0,40.0,39.0,32.4,-99.9,77,66,53,29.99,29.65,13,6,22,0.00
2013-10-27,46.0,39.3,34.0,34.0,31.6,29.0,82,74,62,30.04,29.90,6,2,16,0.00
2013-10-28,43.0,35.1,28.0,32.0,24.4,-99.9,84,68,49,30.38,30.04,6,2,14,0.00
2013-10-29,42.0,34.8,27.0,38.0,30.0,22.0,92,83,78,30.38,30.08,3,1,9,0.00
2013-10-30,52.0,46.5,40.0,51.0,45.4,38.0,98,96,92,30.08,29.69,4,1,12,0.04
2013-10-31,54.0,49.9,42.0,53.0,48.9,41.0,98,98,96,29.69,29.23,10,3,19,0.13
2013-11-1,45.0,42.8,40.0,42.0,40.3,37.0,98,91,82,29.71,29.24,9,5,18,0.01
2013-11-2,43.0,37.7,32.0,39.0,33.9,-99.9,95,89,79,30.09,29.71,6,2,12,0.01
2013-11-3,47.0,37.3,29.0,40.0,32.9,28.0,97,85,60,30.20,30.07,8,2,16,0.01
2013-11-4,48.0,44.3,41.0,45.0,39.8,36.0,96,84,72,30.09,29.92,7,4,18,0.05
2013-11-5,46.0,39.5,32.0,43.0,38.0,31.0,97,95,86,30.21,29.82,7,2,17,0.86
2013-11-6,40.0,36.5,29.0,39.0,31.8,25.0,96,84,62,30.07,29.75,12,6,21,1.10
2013-11-7,36.0,30.4,27.0,28.0,26.1,24.0,93,84,68,30.15,30.08,8,3,15,0.01
2013-11-8,40.0,32.4,25.0,37.0,29.6,24.0,96,90,75,30.17,29.66,8,2,19,0.19
2013-11-9,45.0,40.9,37.0,42.0,34.3,-99.9,93,80,65,29.99,29.59,17,8,29,0.19
2013-11-10,44.0,39.3,36.0,34.0,29.9,28.0,84,69,55,30.24,30.00,12,6,24,0.00
2013-11-11,39.0,28.8,21.0,33.0,20.3,12.0,93,71,52,30.51,29.99,9,5,18,0.01
2013-11-12,27.0,20.1,14.0,15.0,12.6,10.0,83,73,56,30.64,30.42,8,4,14,0.01
2013-11-13,47.0,31.1,17.0,30.0,20.8,12.0,83,67,51,30.41,29.87,10,5,19,0.00
2013-11-14,42.0,37.6,32.0,36.0,28.5,23.0,81,70,57,29.86,29.75,5,2,14,0.01
2013-11-15,53.0,40.6,31.0,40.0,34.1,29.0,94,78,56,29.84,29.75,5,1,11,0.01
2013-11-16,54.0,44.3,38.0,53.0,40.7,-99.9,97,90,79,29.75,29.28,7,4,15,0.22
2013-11-17,52.0,44.9,35.0,51.0,42.4,30.0,97,91,79,29.57,29.19,17,6,34,0.09
2013-11-18,34.0,29.5,24.0,30.0,23.3,20.0,85,78,70,30.17,29.59,19,10,37,0.01
2013-11-19,36.0,28.3,19.0,26.0,22.3,17.0,94,78,63,30.26,30.13,5,2,12,0.00
2013-11-20,34.0,33.8,33.0,33.0,32.8,32.0,96,96,96,30.02,30.00,4,2,8,0.00
2013-11-21,37.0,34.6,31.0,36.0,33.3,28.0,97,95,84,30.28,30.02,7,2,14,0.25
2013-11-22,31.0,26.4,22.0,27.0,19.6,14.0,93,76,53,30.42,30.28,10,5,17,0.01
2013-11-23,21.0,14.0,9.0,15.0,5.2,2.0,80,68,55,30.62,30.36,10,7,21,0.00
2013-11-30,34.0,30.4,30.0,28.0,19.5,-99.9,83,76,79,30.03,30.00,2,1,5,0.01
2013-12-1,36.0,28.2,23.0,30.0,25.6,21.0,95,90,75,30.10,29.91,4,1,8,0.01
2013-12-2,36.0,29.7,22.0,32.0,27.7,20.0,96,92,84,29.91,29.67,5,2,14,0.01
2013-12-3,34.0,32.2,29.0,33.0,31.2,28.0,97,96,95,29.75,29.65,7,4,15,0.01
2013-12-4,37.0,32.8,29.0,36.0,31.7,28.0,98,96,89,29.74,29.34,12,4,23,0.29
2013-12-5,31.0,13.7,4.0,28.0,8.6,0.0,88,79,70,30.17,29.48,16,8,27,0.22
2013-12-6,8.0,2.5,-2.0,1.0,-2.5,-7.0,84,79,69,30.47,30.17,8,5,15,0.00
2013-12-7,5.0,-1.7,-8.0,-3.0,-8.1,-99.9,83,77,65,30.58,30.47,6,3,12,0.00
2013-12-8,11.0,5.9,-3.0,8.0,2.2,-7.0,89,85,78,30.48,29.90,5,2,9,0.00
2013-12-9,12.0,5.3,-5.0,9.0,0.8,-9.0,89,81,70,30.01,29.84,13,4,24,0.00
2013-12-10,8.0,3.8,-5.0,3.0,-1.2,-9.0,86,79,70,30.10,29.72,12,5,21,0.00
2013-12-11,8.0,-1.6,-8.0,4.0,-7.7,-13.0,84,75,62,30.37,30.09,11,5,18,0.00
2013-12-12,17.0,7.3,-6.0,12.0,2.3,-11.0,85,79,72,30.30,30.06,6,2,10,0.00
2013-12-13,17.0,14.2,11.0,12.0,8.3,5.0,84,77,72,30.20,30.06,7,3,15,0.00
2013-12-14,20.0,14.7,11.0,16.0,10.2,-99.9,90,85,82,30.19,29.86,9,3,16,0.00
2013-12-15,12.0,0.8,-8.0,8.0,-4.8,-12.0,83,76,64,30.03,29.85,11,6,21,0.00
2013-12-16,14.0,4.0,-9.0,12.0,0.1,-13.0,91,84,74,30.04,29.85,5,2,13,0.00
2013-12-17,29.0,22.1,14.0,26.0,18.1,6.0,94,85,71,29.97,29.73,12,6,23,0.00
2013-12-18,28.0,17.4,3.0,25.0,11.8,0.0,92,79,64,29.98,29.61,6,2,14,0.00
2013-12-19,26.0,22.4,18.0,23.0,18.9,14.0,94,86,76,29.96,29.67,9,3,16,0.00
2013-12-20,23.0,20.1,17.0,20.0,16.8,14.0,92,86,82,29.92,29.76,8,4,16,0.00
2013-12-21,27.0,23.9,22.0,24.0,20.1,-99.9,94,88,79,29.87,29.75,6,2,14,0.00
2013-12-22,24.0,23.0,21.0,22.0,20.0,17.0,93,88,78,30.04,29.75,6,2,11,0.00
2013-12-23,21.0,10.4,-2.0,19.0,7.4,-5.0,93,88,83,30.33,30.04,6,3,12,0.00
2013-12-24,12.0,2.5,-11.0,9.0,-1.0,-15.0,89,85,82,30.38,30.12,4,1,10,0.00
2013-12-25,20.0,13.9,9.0,18.0,11.1,6.0,93,89,88,30.11,29.96,7,3,13,0.00
2013-12-26,20.0,16.0,9.0,16.0,12.8,6.0,91,87,82,30.11,29.98,6,1,13,0.00
2013-12-27,36.0,23.9,9.0,30.0,20.9,6.0,93,88,79,30.12,29.83,7,2,13,0.05
2013-12-28,44.0,31.1,22.0,34.0,26.2,-99.9,96,85,66,29.93,29.65,5,1,11,0.44
2013-12-29,32.0,10.6,-10.0,30.0,4.9,-16.0,93,77,67,30.20,29.66,12,7,21,0.02
2013-12-30,-2.0,-7.6,-17.0,-6.0,-14.0,-22.0,81,74,59,30.25,30.13,4,1,7,0.00
2013-12-31,2.0,-2.8,-11.0,-5.0,-7.9,-15.0,84,78,66,30.35,30.11,8,3,13,0.00
2014-1-1,6.0,-0.2,-11.0,-2.0,-6.5,-15.0,80,74,68,30.42,30.31,5,3,11,0.00
2014-1-2,8.0,2.3,-8.0,-1.0,-4.8,-12.0,81,72,63,30.38,30.30,5,3,11,0.00